Bookmark and Share
Track history (hours):
 

Chem Orion

Last reported at 2014-Apr-21 15:16 UTC. Time now 2014-Apr-23 09:36 UTC.
Position N 43°56' W 005°51'.

Length 125 m; draft 7.3 m.

Type: Ship (hazmat cat D). MMSI: 538002197.

NotesDate/timePositionNaut miles runAvg speedWind from/ knotsBaromVisibWave heightAir tempDewpointWater temp
2014-Apr-21 15:16N 43°56' W 005°51'  
2014-Apr-19 09:33N 43°32' W 002°10'2211.0
2014-Apr-19 07:33N 43°34' W 001°40'7 6.9
2014-Apr-19 06:32N 43°32' W 001°30'0 0.0
2014-Apr-18 22:25N 43°32' W 001°30'0 0.0
2014-Apr-18 20:28N 43°32' W 001°30'0 0.0
2014-Apr-18 19:25N 43°32' W 001°30'0 0.2
2014-Apr-18 17:33N 43°32' W 001°30'5 4.6
2014-Apr-18 16:33N 43°33' W 001°36'19311.3
2014-Apr-17 23:33N 46°15' W 004°03'1210.8
2014-Apr-17 22:28N 46°25' W 004°12'1011.0
2014-Apr-17 21:33N 46°33' W 004°20'1111.4
2014-Apr-17 20:33N 46°43' W 004°29'2711.9
2014-Apr-17 18:19N 47°06' W 004°49'1012.2
2014-Apr-17 17:32N 47°14' W 004°56'3411.4
2014-Apr-17 14:33N 47°44' W 005°21'194 8.8
2014-Apr-16 16:31N 50°09' W 002°05'1414.1
2014-Apr-16 15:33N 50°13' W 001°45'1515.0
2014-Apr-16 14:31N 50°16' W 001°22'1414.8
2014-Apr-16 13:33N 50°20' W 001°00'1312.9
2014-Apr-16 12:33N 50°23' W 000°40'1110.7
2014-Apr-16 11:33N 50°26' W 000°24'1110.1
2014-Apr-16 10:27N 50°29' W 000°07'10 9.2
2014-Apr-16 09:24N 50°31' E 000°08'8 9.0
2014-Apr-16 08:33N 50°33' E 000°19'1010.0
2014-Apr-16 07:33N 50°36' E 000°34'1211.8
2014-Apr-16 06:33N 50°44' E 000°49'2512.6
2014-Apr-16 04:33N 50°60' E 001°19'1111.1
2014-Apr-16 03:33N 51°07' E 001°33'9 9.3
2014-Apr-16 02:33N 51°13' E 001°44'9 8.8
2014-Apr-16 01:33N 51°21' E 001°51'9 9.2
2014-Apr-16 00:34N 51°29' E 001°58'1010.4
2014-Apr-15 23:33N 51°36' E 002°09'239 7.5
2014-Apr-14 15:34N 54°12' E 007°09'6 5.9
2014-Apr-14 14:33N 54°12' E 007°20'6 6.4
2014-Apr-14 13:33N 54°12' E 007°31'14 7.0
2014-Apr-14 11:33N 54°06' E 007°52'7 6.6
2014-Apr-14 10:33N 54°05' E 008°03'5 5.4
2014-Apr-14 09:33N 54°00' E 008°08'7 6.8
2014-Apr-14 08:34N 53°60' E 008°19'7 6.6
2014-Apr-14 07:33N 53°58' E 008°30'8 7.5
2014-Apr-14 06:33N 53°55' E 008°41'10 9.8
2014-Apr-14 05:33N 53°51' E 008°57'41 5.9
2014-Apr-13 22:32N 53°30' E 009°58'0 0.0
2014-Apr-13 21:32N 53°30' E 009°58'0 0.0
2014-Apr-13 20:26N 53°30' E 009°58'0 0.0
2014-Apr-13 19:32N 53°30' E 009°58'0 0.0
2014-Apr-13 18:29N 53°30' E 009°58'0 0.0
2014-Apr-13 17:32N 53°30' E 009°58'0 0.0
2014-Apr-13 16:32N 53°30' E 009°58'0 0.0
2014-Apr-13 15:32N 53°30' E 009°58'0 0.0
2014-Apr-13 14:32N 53°30' E 009°58'0 0.0
2014-Apr-13 13:32N 53°30' E 009°58'0 0.0
2014-Apr-13 12:29N 53°30' E 009°58'0 0.0
2014-Apr-13 11:32N 53°30' E 009°58'0 0.0
2014-Apr-13 10:26N 53°30' E 009°58'0 0.0
2014-Apr-13 09:32N 53°30' E 009°58'0 0.0
2014-Apr-13 08:32N 53°30' E 009°58'0 0.0
2014-Apr-13 07:32N 53°30' E 009°58'0 0.0
2014-Apr-13 06:32N 53°30' E 009°58'0 0.0
2014-Apr-13 05:32N 53°30' E 009°58'0 0.0
2014-Apr-13 04:31N 53°30' E 009°58'0 0.0
2014-Apr-13 03:19N 53°30' E 009°58'0 0.0
2014-Apr-13 02:31N 53°30' E 009°58'0 0.0
2014-Apr-13 01:31N 53°30' E 009°58'0 0.0
2014-Apr-13 00:31N 53°30' E 009°58'0 0.0
2014-Apr-12 23:25N 53°30' E 009°58'0 0.0
2014-Apr-12 22:31N 53°30' E 009°58'0 0.0
2014-Apr-12 21:31N 53°30' E 009°58'0 0.0
2014-Apr-12 20:31N 53°30' E 009°58'0 0.0
2014-Apr-12 19:31N 53°30' E 009°58'0 0.0
2014-Apr-12 18:31N 53°30' E 009°58'0 0.0
2014-Apr-12 17:31N 53°30' E 009°58'0 0.3
2014-Apr-12 16:33N 53°31' E 009°57'5 4.6
2014-Apr-12 15:33N 53°33' E 009°50'9 8.7
2014-Apr-12 14:33N 53°35' E 009°36'1110.6
2014-Apr-12 13:33N 53°44' E 009°26'1111.3
2014-Apr-12 12:33N 53°53' E 009°14'1211.7
2014-Apr-12 11:34N 53°51' E 008°54'1110.8
2014-Apr-12 10:33N 53°56' E 008°39'1211.6
2014-Apr-12 09:33N 53°59' E 008°20'1111.0
2014-Apr-12 08:33N 54°01' E 008°01'8 8.2
2014-Apr-12 07:33N 54°04' E 007°48'0 0.1
2014-Apr-12 06:33N 54°04' E 007°48'0 0.0
2014-Apr-12 05:32N 54°04' E 007°48'0 0.0
2014-Apr-12 04:33N 54°04' E 007°48'2 2.2
2014-Apr-12 03:33N 54°03' E 007°52'1110.6
2014-Apr-12 02:33N 54°09' E 007°36'1211.9
2014-Apr-12 01:34N 54°09' E 007°16'1211.7
2014-Apr-12 00:33N 54°09' E 006°56'3812.1
2014-Apr-11 21:26N 54°06' E 005°52'1212.4
2014-Apr-11 20:28N 54°04' E 005°32'1312.7
2014-Apr-11 19:28N 54°02' E 005°10'10 8.7
2014-Apr-11 18:23N 54°06' E 004°55'1012.0
2014-Apr-11 17:33N 54°16' E 004°57'  

Dump ship's entire track history

sailing weather and tide predictions

Chem Orion — V7GZ9 — position and weather